Temp
12 12 11 11 11 10 10 10 10 9 9 9 9 9 9 9 9 9 10 10 11 11 10 9 9 10 11 12 12 12 12 12 12 12 13 13 13 13 14 14 14 14
11 11 11 11 10 10 9 9 9 9 8 8 8 8 9 8 8 9 9 9 10 9 9 8 8 9 10 11 11 11 11 12 12 12 12 13 13 13 13 14 14 14
10 10 10 10 9 9 9 8 8 8 7 7 7 7 7 7 8 8 8 8 8 8 7 7 8 9 10 10 10 11 11 11 11 12 12 12 13 13 13 13 13 14
10 9 9 9 9 8 8 8 7 7 7 7 6 6 6 6 6 6 6 7 7 6 6 7 8 9 9 10 10 10 11 11 11 11 12 12 12 13 13 13 13 13
9 9 9 8 8 8 7 7 7 7 6 6 6 6 5 5 5 5 5 5 5 6 6 7 7 7 7 8 8 8 9 9 10 10 11 12 12 12 13 13 13 13
8 8 8 8 8 8 7 7 7 6 6 6 6 5 5 5 5 4 4 4 5 5 5 5 5 5 5 5 6 6 5 6 6 7 7 9 10 12 12 12 12 13
8 8 8 8 8 7 7 7 6 6 6 6 6 5 5 5 5 4 4 4 4 4 4 4 4 4 4 4 4 4 4 4 4 4 5 5 6 9 11 11 11 12
8 8 8 8 7 7 7 7 6 6 6 6 6 5 5 5 5 5 5 4 4 4 4 4 4 4 4 4 4 4 4 4 4 4 4 4 4 6 7 8 8 9
7 7 7 7 7 7 7 7 6 6 6 6 5 5 5 5 5 5 5 4 4 4 4 4 3 3 4 4 4 3 3 3 3 3 3 4 4 4 5 5 6 6
7 7 7 7 7 7 7 6 6 6 6 6 5 5 5 5 5 4 4 4 4 4 4 3 3 3 3 4 4 3 3 2 3 3 3 4 4 4 5 5 5 5
7 7 7 7 6 6 6 6 6 6 6 5 5 5 5 4 4 4 4 4 4 4 3 3 3 3 3 4 4 4 3 3 3 3 3 4 4 4 4 5 5 5
7 7 7 7 6 6 6 6 6 5 5 5 5 5 5 5 5 4 4 4 4 3 3 3 3 2 3 3 4 4 4 3 3 3 3 3 4 4 4 5 5 5
7 7 7 7 6 6 6 6 5 5 5 5 5 5 5 5 5 5 4 4 4 3 3 3 2 2 2 3 3 4 4 4 3 3 3 3 4 4 4 5 5 5
7 7 7 6 6 6 6 5 5 5 5 5 5 5 5 5 5 5 4 4 4 3 3 3 2 2 2 3 3 3 4 3 3 3 2 3 3 4 4 4 5 5
7 7 7 6 6 6 6 6 5 5 5 5 5 5 5 5 5 4 4 4 4 3 3 2 2 2 2 2 2 3 3 3 2 2 2 2 3 3 3 4 4 4
7 7 7 6 6 6 6 6 6 6 6 5 5 5 5 5 5 4 4 4 3 3 3 3 2 2 3 3 3 3 3 2 2 2 2 2 2 3 3 3 3 3
7 7 7 6 6 6 6 6 6 6 6 6 6 5 5 5 5 4 4 4 4 3 3 3 2 2 3 3 3 3 3 2 2 2 2 2 2 2 3 3 3 3
7 7 7 7 6 6 6 6 6 6 6 6 6 5 5 5 5 4 4 4 4 3 3 3 3 3 3 3 3 3 3 2 2 2 2 1 1 2 2 3 2 3
7 7 7 7 6 6 6 6 6 6 6 5 5 5 5 5 4 4 4 4 4 3 3 3 3 3 3 3 3 3 3 2 2 2 2 2 1 1 2 2 2 2
7 7 7 7 7 6 6 6 6 6 5 5 5 5 5 5 4 4 4 4 4 3 3 3 3 3 3 3 3 3 3 2 2 2 2 2 2 1 1 2 2 2
7 7 7 7 7 6 6 6 6 6 5 5 5 5 5 5 4 4 4 4 4 4 3 3 3 3 3 3 3 3 3 2 2 2 2 2 2 1 1 1 2 2
7 7 7 7 7 7 6 6 6 6 6 5 5 5 5 5 5 4 4 4 4 4 4 4 4 3 3 3 3 3 3 2 2 2 2 2 1 1 1 1 1 1
8 7 7 7 7 7 7 6 6 6 6 5 5 5 5 5 5 4 4 4 4 4 3 3 4 3 3 3 3 3 2 2 2 1 1 1 1 1 1 1 1 1
8 8 7 7 7 7 7 6 6 6 6 5 5 5 5 5 4 4 4 4 4 4 3 3 3 3 3 3 3 2 2 2 1 1 1 1 1 1 1 0 0 1
8 8 7 7 7 7 7 6 6 6 6 6 5 5 5 5 5 4 4 4 4 4 4 3 3 3 3 3 3 3 2 2 1 1 1 1 1 0 0 0 -0 1
8 8 7 7 7 7 6 6 6 6 6 6 5 5 5 5 5 4 4 4 4 4 4 3 3 3 3 3 3 3 2 2 2 1 0 0 0 -0 -0 -0 -0 -0
Height
835 834 834 834 833 833 832 832 831 830 830 828 827 827 826 825 824 823 822 821 819 818 817 815 814 812 811 809 807 805 804 802 800 799 797 795 794 792 791 790 788 787
837 836 836 836 835 835 834 833 832 831 830 830 828 827 826 825 824 823 822 820 819 818 817 815 814 812 810 809 807 805 803 801 800 798 796 794 793 791 789 788 786 785
839 838 838 838 837 836 835 833 833 832 831 830 829 828 827 826 824 823 822 820 819 818 817 816 814 812 810 808 806 804 802 801 799 797 795 793 792 790 788 786 784 783
841 841 840 840 838 837 836 834 834 833 832 831 830 829 828 826 825 823 822 821 819 819 818 816 815 812 810 808 806 804 801 799 798 795 794 792 790 788 786 785 783 781
843 843 842 841 840 838 837 835 835 834 833 832 831 830 828 827 825 824 822 821 820 820 819 817 815 812 810 807 805 803 800 798 796 794 792 790 788 787 785 783 781 779
846 845 843 842 841 839 838 837 836 835 834 833 832 831 829 828 826 825 823 822 821 821 819 817 815 812 810 807 805 802 800 798 795 793 790 788 786 785 783 781 779 777
847 846 844 843 842 841 840 839 838 836 835 835 833 832 831 829 827 826 825 824 823 822 820 817 815 812 810 807 805 802 800 797 795 792 790 788 785 783 781 779 777 775
848 846 845 844 843 843 842 841 840 838 837 837 835 834 832 830 829 827 826 825 824 822 820 818 815 813 810 807 805 802 799 797 794 792 790 787 785 782 780 778 776 773
848 847 847 846 845 844 844 843 841 840 839 838 837 836 834 832 830 829 827 826 824 823 821 818 816 813 811 808 805 802 800 797 794 792 790 787 785 783 780 778 775 773
850 849 849 848 847 846 845 844 843 842 841 840 839 837 835 833 832 830 829 827 825 823 822 819 817 814 811 809 806 803 800 798 795 793 790 788 785 783 780 778 776 773
851 851 851 850 850 848 847 846 844 843 842 841 840 838 836 834 833 831 830 828 827 825 823 821 818 815 812 809 806 804 801 798 795 793 790 788 785 783 780 778 776 773
853 853 853 852 851 850 848 847 846 845 844 842 841 839 837 836 834 833 831 830 828 827 825 822 820 817 813 810 807 804 801 798 795 793 791 788 785 782 780 778 775 773
854 855 854 853 852 851 850 848 847 846 845 844 843 841 839 837 836 834 833 831 830 828 826 824 821 818 814 811 808 804 801 798 795 793 790 787 785 782 780 777 775 772
856 855 855 855 854 852 851 850 849 848 847 846 844 842 840 839 838 836 834 833 831 829 827 825 822 819 816 812 809 805 802 799 796 793 790 787 785 782 779 777 774 772
857 856 856 856 855 853 852 851 850 850 849 847 845 844 842 841 839 838 836 834 832 830 828 826 823 821 818 815 811 807 803 800 797 794 791 788 784 782 779 776 774 770
858 857 857 857 855 855 854 853 852 851 850 848 847 845 844 842 841 839 837 836 834 831 829 827 824 822 819 816 813 809 804 801 797 794 791 788 785 782 779 775 773 769
859 858 858 857 856 856 855 854 854 852 851 850 848 847 846 844 843 841 839 837 835 833 830 828 825 823 820 816 813 809 805 801 798 795 792 789 786 782 779 775 772 768
860 860 859 858 858 858 857 856 855 854 853 851 850 849 848 846 844 843 841 839 836 834 832 829 827 824 821 817 813 810 806 802 799 796 792 790 787 783 780 776 772 768
861 861 860 860 859 859 858 858 856 855 854 853 852 851 849 847 846 844 842 840 837 835 833 830 828 825 821 818 814 810 807 803 800 796 793 790 787 784 780 777 773 768
862 862 861 861 861 860 859 859 857 856 856 855 854 852 850 848 847 845 843 841 839 836 834 831 828 825 822 818 814 811 807 803 800 797 793 790 787 784 780 777 773 769
863 863 863 862 862 861 860 859 859 858 857 856 855 853 851 850 848 846 844 842 839 837 834 832 829 825 822 819 815 811 807 803 800 797 793 790 786 783 780 776 773 769
864 864 863 863 863 862 861 860 859 859 858 857 856 854 852 851 849 847 845 842 840 837 834 832 829 826 823 819 815 812 807 803 800 796 793 790 786 782 779 776 773 769
865 865 864 864 864 863 862 861 860 859 858 857 856 855 853 851 849 848 845 843 841 838 835 833 830 826 823 820 816 812 808 804 800 796 793 790 786 782 779 776 772 769
866 866 865 865 864 863 863 862 861 860 859 858 857 856 854 852 850 848 846 844 841 839 836 833 830 827 824 820 817 813 809 805 801 797 793 789 785 782 779 776 772 769
867 867 866 865 865 864 863 862 862 861 860 859 858 856 855 853 851 848 846 844 842 840 837 834 831 827 824 821 818 814 810 806 802 798 794 789 785 781 778 775 771 767
868 867 867 866 865 864 864 863 862 862 861 860 858 856 855 853 851 849 846 844 842 840 837 834 831 828 824 821 818 815 812 808 804 799 795 790 787 783 778 774 770 766
Wind_Speed
13 14 14 15 15 15 15 15 16 16 17 17 17 16 15 15 15 14 14 14 13 12 13 15 16 17 17 17 17 16 16 17 17 18 19 19 20 21 22 23 23 24
13 13 13 14 14 15 15 16 16 17 17 17 17 16 15 14 15 15 15 14 14 13 13 16 18 19 20 20 20 20 19 19 19 20 20 20 21 21 21 23 24 24
14 14 14 14 15 16 16 17 17 18 19 19 19 18 17 16 16 15 15 16 16 16 17 20 21 21 22 23 22 23 22 22 22 22 21 21 21 21 21 22 24 25
15 15 15 16 17 18 18 19 20 20 21 22 22 21 20 19 19 18 17 18 18 19 21 23 23 23 24 24 24 24 24 24 24 24 24 22 21 21 22 22 23 24
15 15 16 17 18 19 20 21 21 21 22 23 23 22 22 21 21 20 19 19 20 21 23 25 26 27 27 27 27 26 26 25 24 25 25 25 23 22 22 23 23 24
16 16 16 17 18 20 22 23 22 22 22 23 23 24 23 22 22 21 20 20 19 20 24 28 29 30 31 31 31 30 30 29 26 24 24 25 25 23 22 23 25 25
16 16 17 17 18 19 21 22 22 22 22 23 24 24 24 24 23 22 21 21 21 21 25 28 29 31 32 32 32 32 31 31 30 27 25 26 26 25 24 24 25 26
15 16 17 17 17 17 18 19 20 21 21 22 23 23 23 25 25 24 23 23 23 24 26 29 30 31 33 33 33 33 32 32 32 29 28 27 26 28 27 25 26 26
18 18 18 18 17 17 17 18 18 19 19 20 22 23 23 24 24 24 24 24 24 26 28 31 32 32 34 34 34 33 33 33 32 30 28 27 26 28 29 27 25 25
21 21 21 20 20 19 18 18 18 18 19 19 21 23 23 23 23 23 24 25 25 27 29 31 33 33 35 36 35 34 32 32 32 30 29 26 24 26 27 27 26 26
20 21 21 22 21 21 20 19 19 18 19 19 21 22 23 23 24 23 24 25 25 26 27 30 33 33 35 37 37 36 34 31 31 31 30 27 25 24 24 26 28 28
17 18 19 20 21 21 21 21 21 20 20 21 22 23 24 25 26 25 25 25 25 25 26 29 32 34 36 38 38 38 36 34 31 31 31 29 26 23 23 27 29 28
15 15 17 19 20 21 21 21 22 22 23 23 24 25 26 27 27 27 27 27 27 27 27 29 32 34 37 39 39 39 37 35 32 31 31 30 25 22 23 26 27 26
16 15 16 18 20 21 21 22 22 23 24 24 25 26 27 27 28 28 28 28 29 28 28 28 31 34 37 39 39 39 37 35 32 31 32 31 26 23 24 25 25 25
19 18 17 18 21 22 22 22 23 23 24 24 25 26 27 27 27 28 29 29 29 29 29 29 31 34 37 38 38 38 36 34 32 31 31 31 27 24 24 24 25 27
21 19 19 20 22 23 23 23 24 24 24 25 25 26 26 27 28 29 30 30 30 30 30 31 32 35 37 38 38 37 35 34 32 31 31 30 27 25 25 26 27 29
22 21 21 21 22 23 23 23 24 24 25 25 25 25 26 27 28 29 30 30 30 30 30 31 32 35 37 39 39 39 36 34 33 32 31 30 26 24 25 27 29 30
21 22 22 22 22 22 22 22 23 24 24 24 24 24 25 26 27 28 28 29 29 30 30 30 32 34 37 39 40 40 37 34 33 32 32 30 27 25 24 26 28 30
19 20 21 20 20 20 20 21 21 21 22 23 23 23 23 25 26 27 28 29 29 30 30 30 31 34 37 38 40 40 38 35 33 32 32 31 31 27 24 24 28 30
17 17 17 17 17 17 18 18 19 19 19 20 22 23 23 24 25 26 27 28 29 30 30 31 32 34 36 37 39 40 39 35 34 33 32 32 33 31 26 24 27 29
17 16 15 14 14 14 15 15 16 16 17 18 20 22 22 23 24 25 26 27 29 30 31 32 33 34 36 37 38 40 40 37 35 34 34 34 34 33 29 24 26 28
17 16 15 14 14 13 14 14 15 15 16 17 18 20 21 22 22 23 24 25 28 30 31 33 34 34 35 36 37 39 40 38 36 35 35 35 35 34 31 28 28 28
17 18 17 16 16 16 16 16 16 17 17 17 18 19 21 22 22 21 22 23 26 28 30 31 33 34 34 35 35 37 39 38 36 35 35 35 35 34 31 30 30 29
18 19 19 18 18 18 19 19 18 18 18 18 18 19 21 22 22 22 22 22 24 26 28 30 32 34 34 34 34 35 37 37 35 35 35 36 36 34 32 32 32 31
18 19 19 19 20 19 19 20 19 19 18 18 19 20 21 23 24 25 24 23 23 25 28 30 32 34 34 33 33 34 37 36 35 35 36 36 36 33 33 34 34 35
17 17 18 18 19 19 19 19 19 18 19 19 21 22 23 25 26 27 27 26 25 27 29 31 32 34 34 33 33 34 36 36 36 35 35 36 34 31 31 35 37 38
Wind_Direction
70 68 66 64 62 56 52 47 41 39 36 33 31 28 25 19 13 7 4 5 2 5 14 9 359 357 353 349 350 348 344 342 340 339 334 328 326 320 315 314 312 308
71 68 65 61 59 55 51 47 44 41 39 36 31 28 23 16 11 8 8 10 11 16 19 8 0 359 354 350 350 349 347 344 339 337 335 330 328 325 320 316 314 313
69 63 61 59 57 55 51 49 48 46 43 39 35 32 27 22 17 16 19 22 23 26 20 9 3 360 355 351 347 345 345 343 340 337 334 332 330 327 324 320 314 312
68 64 63 62 60 56 52 49 48 46 44 40 37 35 31 27 24 24 27 28 30 29 20 14 12 9 5 0 353 347 342 338 336 334 331 329 330 327 325 322 317 312
70 69 69 66 61 56 52 50 48 47 45 41 37 35 33 30 28 27 27 27 31 29 21 20 20 17 15 12 8 4 356 347 338 332 327 323 322 324 325 324 321 316
72 72 71 68 64 57 51 49 49 48 47 41 37 34 33 34 33 29 27 27 30 26 18 17 17 15 14 12 10 8 4 359 351 343 335 328 320 317 318 321 322 319
74 72 71 70 67 60 52 49 49 50 48 42 37 34 33 36 37 36 34 32 30 24 17 15 13 12 12 10 8 5 2 2 0 353 345 340 333 325 319 318 319 319
78 74 72 69 66 62 56 51 49 51 49 42 38 36 37 39 40 39 36 33 28 23 18 15 13 11 10 9 7 4 1 2 2 357 350 344 341 338 333 325 320 317
78 76 73 69 66 63 61 56 53 54 51 44 39 40 42 41 39 36 32 29 25 21 17 15 13 12 10 8 6 3 1 2 2 358 351 344 339 341 341 335 329 322
79 77 73 69 66 64 64 62 59 58 55 48 42 41 42 40 36 33 30 27 24 21 17 14 13 11 9 8 6 3 360 360 1 358 353 345 337 337 339 338 333 328
83 80 74 68 65 64 64 64 63 61 57 50 43 40 40 39 37 34 30 27 24 20 16 13 12 11 8 7 6 4 1 359 359 358 355 348 340 336 336 336 334 329
87 82 75 69 65 64 64 63 62 60 56 51 46 44 43 42 40 36 32 29 25 21 17 13 12 10 8 6 6 5 4 1 359 356 353 349 344 339 336 337 338 334
89 86 80 72 67 66 66 63 60 58 55 53 50 48 46 43 40 37 33 30 26 22 18 14 12 11 9 7 6 5 3 1 358 356 353 350 344 337 337 340 340 337
90 92 88 77 70 68 67 65 62 59 56 54 51 48 45 42 39 35 32 29 26 22 19 15 13 11 9 7 6 4 3 1 359 356 354 352 346 339 340 342 340 337
91 95 91 80 71 70 69 67 64 60 56 53 50 47 44 41 37 33 30 26 24 21 19 17 14 11 9 9 7 4 2 1 359 357 355 352 346 342 342 341 341 341
91 93 89 80 74 71 69 66 63 59 56 53 50 47 43 39 36 32 29 25 22 20 18 17 15 12 11 11 10 7 4 2 360 358 357 354 347 343 343 342 342 341
89 90 86 80 75 71 67 65 61 58 55 52 49 46 42 39 36 33 30 27 24 22 19 17 15 12 12 12 12 10 7 3 0 358 357 355 350 344 342 342 341 341
89 87 84 79 74 71 67 64 61 57 54 50 47 43 41 39 37 34 31 28 26 24 21 18 15 13 12 12 12 11 9 5 1 359 357 355 351 345 339 340 341 340
91 87 83 79 75 72 68 64 60 57 53 49 45 43 41 39 38 35 33 30 26 24 21 18 15 13 12 11 10 10 9 6 2 360 357 354 352 348 340 337 340 340
92 89 85 81 78 73 68 63 59 55 51 47 43 42 41 39 38 35 33 30 26 22 19 16 14 12 11 10 9 9 8 6 2 360 357 355 354 352 345 337 338 339
91 90 88 83 79 74 68 63 57 52 49 44 41 42 41 38 36 34 32 29 25 22 19 16 15 12 10 10 9 8 7 6 2 360 357 355 354 354 351 342 338 339
91 91 89 85 80 76 70 64 57 51 47 44 43 43 41 37 35 31 29 27 25 22 19 17 16 14 10 9 9 8 7 5 3 360 357 355 354 354 352 346 343 341
92 92 90 86 82 78 73 66 60 54 50 48 47 44 39 35 32 29 27 25 23 21 16 13 14 13 10 8 10 9 7 5 3 359 357 355 354 353 351 347 346 344
97 95 92 90 85 80 76 69 63 59 55 53 51 45 39 34 30 29 28 24 21 19 15 11 11 12 10 9 10 11 8 6 3 359 357 355 354 353 352 349 347 346
101 98 94 91 87 82 77 71 66 63 60 58 53 46 41 36 32 29 28 26 22 20 17 14 11 11 11 10 11 12 10 7 5 1 358 355 354 352 351 350 350 349
102 99 95 91 87 82 78 72 67 64 61 56 52 46 41 37 34 31 29 28 26 22 20 17 13 11 11 12 13 13 11 9 8 4 359 355 354 352 350 350 351 350